[[{"header":{"parameterUnit":"m.s-1","parameterCategory":1,"la1":30.2991,"la2":30.254,"lo1":-89.0895,"lo2":-89.0444,"dx":0.0017,"dy":0.0017,"nx":28,"ny":28,"refTime":"2023-01-13T09:00:00:Z","depth":0,"parameterNumber":2,"parameterNumberName":"U-component_of_WINDS"},"data":[0,0,0,0,0,0,0,0,0,0,0,0,0,0,0,0,0,0,0,0,0,0,0,0,0,0,0,0,0,0,0,0,0,0,0,0,0,0,0,0,0,0,0,0,0,0,0,0,0,0,0,0,0,0,0,0,0,0,4.2174,4.2175,0,4.2233,4.2234,4.2235,4.2205,4.2203,4.2202,4.22,4.2258,4.2261,4.2264,0,0,0,0,0,0,0,0,0,0,0,0,0,4.2035,4.2038,4.2174,4.2175,4.2176,4.2233,4.2234,4.2235,4.2205,4.2203,4.2202,4.22,4.2257,4.2261,4.2264,0,0,0,0,0,0,0,0,0,0,0,0,0,4.2095,4.2039,4.2174,4.2168,4.2168,4.2233,4.2234,4.2235,4.2206,4.2203,4.2201,4.2199,4.2256,4.226,4.2265,4.2338,0,0,4.2278,4.228,0,0,0,0,0,0,0,0,4.2092,4.21,4.2168,4.2169,4.2169,4.2209,4.2206,4.2269,4.2206,4.2191,4.22,4.2198,4.2244,4.2249,4.2265,4.2341,4.2343,4.2279,4.2281,4.2283,4.2284,0,0,0,0,0,0,0,4.2088,4.2097,4.2197,4.2169,4.217,4.2162,4.2168,4.2218,4.2229,4.2192,4.219,4.2198,4.2243,4.2261,4.2266,4.2344,4.2278,4.2282,4.2285,4.2287,4.2485,4.2487,0,0,0,0,0,0,4.2084,4.2094,4.2196,4.2199,4.2124,4.2166,4.2173,4.2199,4.2229,4.2231,4.22,4.2196,4.2254,4.2261,4.2268,4.2357,4.2283,4.2287,4.229,4.2482,4.2485,4.2488,0,0,0,0,0,0,4.2081,4.2093,4.2193,4.2146,4.2158,4.2171,4.22,4.2201,4.2218,4.2235,4.2236,4.2216,4.2253,4.2262,4.2321,4.2358,4.2289,4.2293,4.2479,4.2483,4.2487,4.2534,0,0,0,0,0,0,4.2077,4.2092,4.212,4.2147,4.2161,4.2246,4.2203,4.2204,4.2226,4.2222,4.225,4.2252,4.2252,4.2315,4.2326,4.2363,4.2297,4.2476,4.2481,4.2485,4.2529,4.2539,4.2548,0,0,0,0,0,4.2072,4.2131,4.2122,4.2134,4.2197,4.2248,4.2256,4.2255,4.223,4.2258,4.2269,4.2251,4.2353,4.2321,4.2333,4.2372,4.2473,4.2479,4.2485,4.2525,4.2537,4.2547,0,0,0,0,0,0,4.2106,4.2134,4.2125,4.2193,4.2219,4.2243,4.2279,4.2268,4.23,4.2295,4.2292,4.2298,4.236,4.2372,4.2337,4.2446,4.2409,4.2418,4.2435,4.2447,4.2456,4.2451,4.23,0,0,0,0,0,4.2122,4.2162,4.2184,4.2243,4.2256,4.2266,4.2288,4.2285,4.2311,4.2321,4.2336,4.2362,4.2399,4.2424,4.2459,4.2531,4.2537,4.2564,4.2574,4.2581,4.2588,4.2628,4.2641,4.2507,4.2507,4.2507,0,0,4.2154,4.2174,4.22,4.225,4.2269,4.2311,4.2275,4.232,4.235,4.2328,4.2385,4.2398,4.2426,4.2492,4.2522,4.2504,4.2627,4.2588,4.2594,4.2597,4.2635,4.2648,4.2659,4.2511,4.251,4.251,0,0,4.2235,4.2254,4.2305,4.2326,4.2357,4.2363,4.2376,4.2403,4.241,4.2468,4.2453,4.2489,4.2554,4.2575,4.2594,4.2685,4.2671,4.2697,4.2744,4.2783,4.2794,4.2803,4.2836,4.2848,4.2704,4.2704,4.2704,0,4.227,4.2333,4.2333,4.238,4.2403,4.2386,4.2439,4.2459,4.2499,4.2515,4.2494,4.2577,4.2594,4.2666,4.2689,4.2705,4.2719,4.2693,4.2792,4.2802,4.281,4.2842,4.2854,4.2707,4.2707,4.2707,4.2706,0,4.2376,4.242,4.2458,4.2499,4.2526,4.2575,4.2583,4.261,4.2606,4.2615,4.2675,4.2696,4.2736,4.2753,4.2748,4.2825,4.2813,4.2793,4.2755,4.2826,4.2855,4.2867,4.2712,4.2711,4.271,4.2709,0,0,4.2477,4.252,4.2533,4.2552,4.2586,4.262,4.2669,4.271,4.2734,4.2763,4.2804,4.286,4.2843,4.2864,4.2862,4.2897,4.2969,4.2873,4.2873,4.289,4.3054,4.3069,4.3083,4.296,4.2962,4.2964,4.3052,0,4.256,4.2647,4.2649,4.2728,4.2769,4.2755,4.2798,4.2824,4.2834,4.2869,4.288,4.292,4.2894,4.2907,4.2941,4.2953,4.3001,4.2946,4.2997,4.2999,4.299,4.3098,4.3113,4.3195,4.3064,4.3065,4.3067,0,4.2667,4.2701,4.2785,4.2815,4.2832,4.2871,4.2909,4.2943,4.2972,4.2977,4.3003,4.2997,4.3047,4.301,4.3079,4.3042,4.3063,4.3072,4.3075,4.3079,4.3037,4.3104,4.3221,4.3233,4.3085,4.3083,4.3082,0,4.2732,4.28,4.2859,4.2875,4.2911,4.2939,4.2955,4.2982,4.3007,4.304,4.3056,4.3095,4.3116,4.3146,4.315,4.3122,4.322,4.3183,4.3225,4.3225,4.3245,4.3244,4.3367,4.326,4.326,4.326,4.326,0,4.2824,4.2876,4.2889,4.2925,4.2983,4.2986,4.3043,4.3057,4.3081,4.312,4.311,4.3147,4.3151,4.3188,4.3192,4.3249,4.3259,4.3264,4.3264,4.3264,4.3264,4.3277,4.3272,4.3263,4.3262,4.3262,4.3261,0,4.2906,4.2917,4.2981,4.3011,4.3019,4.3061,4.3086,4.3121,4.3131,4.318,4.3192,4.3207,4.3251,4.3259,4.331,4.3313,4.3381,4.3376,4.3372,4.3371,4.3413,4.3409,4.3548,4.3567,4.3449,4.345,4.3451,0,4.2963,4.3003,4.3038,4.3064,4.3082,4.3124,4.315,4.3154,4.3182,4.3219,4.3249,4.3293,4.3328,4.3399,4.3414,4.3454,4.3449,4.3495,4.3455,4.3454,4.3449,4.3447,4.3451,4.3503,4.3504,4.3505,4.3506,0,4.3064,4.3068,4.3106,4.3147,4.3179,4.3211,4.3241,4.3263,4.3271,4.3303,4.3349,4.3376,4.343,4.3473,4.3513,4.3529,4.3519,4.3519,4.3531,4.3531,4.3527,4.353,4.3392,4.3515,4.3514,4.3513,4.3513,4.3513,4.3135,4.317,4.3201,4.3244,4.3268,4.3297,4.3332,4.3347,4.3386,4.3431,4.3431,4.3481,4.3511,4.3564,4.3583,4.3622,4.3607,4.3624,4.3629,4.3633,4.3637,4.3522,4.3629,4.3629,4.3629,4.3629,4.3629,0,4.3235,4.3255,4.3295,4.3339,4.3373,4.3362,4.3396,4.3425,4.347,4.3499,4.3534,4.3587,4.363,4.3649,4.3691,4.3719,4.3716,4.373,4.3727,4.3731,4.3648,4.3633,4.3732,4.3732,4.3732,4.3732,4.3732,4.3732,4.3291,4.3351,4.3359,4.343,4.3449,4.3499,4.352,4.3547,4.357,4.363,4.3666,4.3679,4.3704,4.3749,4.3787,4.3792,4.3808,4.3824,4.3827,4.3748,4.3737,4.3727,4.3713,4.3828,4.3828,4.3907,4.3908,4.3908]},{"header":{"parameterUnit":"m.s-1","parameterCategory":1,"la1":30.2991,"la2":30.254,"lo1":-89.0895,"lo2":-89.0444,"dx":0.0017,"dy":0.0017,"nx":28,"ny":28,"refTime":"2023-01-13T09:00:00:Z","depth":0,"parameterNumber":3,"parameterNumberName":"V-component_of_WINDS"},"data":[0,0,0,0,0,0,0,0,0,0,0,0,0,0,0,0,0,0,0,0,0,0,0,0,0,0,0,0,0,0,0,0,0,0,0,0,0,0,0,0,0,0,0,0,0,0,0,0,0,0,0,0,0,0,0,0,0,0,-8.3768,-8.377,0,-8.3966,-8.3969,-8.3971,-8.3924,-8.392,-8.3916,-8.3913,-8.411,-8.4119,-8.4128,0,0,0,0,0,0,0,0,0,0,0,0,0,-8.3347,-8.3355,-8.3768,-8.3771,-8.3773,-8.3966,-8.3969,-8.3971,-8.3924,-8.392,-8.3915,-8.3911,-8.4108,-8.4118,-8.4128,0,0,0,0,0,0,0,0,0,0,0,0,0,-8.3536,-8.3357,-8.3768,-8.3773,-8.3776,-8.3965,-8.3969,-8.3972,-8.3925,-8.392,-8.3914,-8.3909,-8.4104,-8.4117,-8.413,-8.4325,0,0,-8.417,-8.4176,0,0,0,0,0,0,0,0,-8.3525,-8.3551,-8.377,-8.3773,-8.3776,-8.3915,-8.3893,-8.409,-8.3927,-8.3868,-8.3912,-8.3906,-8.405,-8.4067,-8.4116,-8.4334,-8.4343,-8.4171,-8.4179,-8.4185,-8.4189,0,0,0,0,0,0,0,-8.3512,-8.3542,-8.3846,-8.3773,-8.3777,-8.3765,-8.3785,-8.393,-8.3988,-8.3873,-8.387,-8.3894,-8.405,-8.4104,-8.4121,-8.4346,-8.4171,-8.4183,-8.4191,-8.4196,-8.4737,-8.4743,0,0,0,0,0,0,-8.3497,-8.3532,-8.384,-8.3852,-8.3634,-8.3777,-8.38,-8.3876,-8.3987,-8.3998,-8.3899,-8.3892,-8.4084,-8.4105,-8.4127,-8.4365,-8.4185,-8.4197,-8.4205,-8.473,-8.4738,-8.4745,0,0,0,0,0,0,-8.3488,-8.3525,-8.3832,-8.3692,-8.373,-8.379,-8.3876,-8.3883,-8.3936,-8.4006,-8.4016,-8.3943,-8.408,-8.4109,-8.4277,-8.4372,-8.4203,-8.4215,-8.4723,-8.4733,-8.4742,-8.4842,0,0,0,0,0,0,-8.3476,-8.3522,-8.3597,-8.3694,-8.3737,-8.398,-8.3882,-8.3891,-8.396,-8.3952,-8.4051,-8.4061,-8.4078,-8.4258,-8.4291,-8.4387,-8.4226,-8.4715,-8.4727,-8.4739,-8.483,-8.4854,-8.4874,0,0,0,0,0,-8.3461,-8.3616,-8.3601,-8.3639,-8.3833,-8.3985,-8.401,-8.4028,-8.3968,-8.4044,-8.4089,-8.4058,-8.4356,-8.4276,-8.4312,-8.4413,-8.4709,-8.4724,-8.4738,-8.4821,-8.4849,-8.4873,0,0,0,0,0,0,-8.3526,-8.3628,-8.3613,-8.3804,-8.3887,-8.3977,-8.4073,-8.4057,-8.4157,-8.4145,-8.4161,-8.4184,-8.4357,-8.4401,-8.431,-8.461,-8.4524,-8.4546,-8.4574,-8.4602,-8.4623,-8.4609,-8.4237,0,0,0,0,0,-8.3563,-8.368,-8.3762,-8.3922,-8.3965,-8.4012,-8.4079,-8.4086,-8.4172,-8.4206,-8.4263,-8.4347,-8.4459,-8.4533,-8.464,-8.4836,-8.4858,-8.4924,-8.4946,-8.4963,-8.4983,-8.5092,-8.5123,-8.4793,-8.4793,-8.4792,0,0,-8.364,-8.371,-8.3782,-8.3937,-8.4002,-8.4122,-8.4042,-8.4171,-8.426,-8.4225,-8.4389,-8.4434,-8.4528,-8.4712,-8.4796,-8.4755,-8.5079,-8.4982,-8.4995,-8.5005,-8.5111,-8.5142,-8.517,-8.4803,-8.4801,-8.4799,0,0,-8.3841,-8.3905,-8.4047,-8.4115,-8.4215,-8.4247,-8.4281,-8.4375,-8.4405,-8.457,-8.4547,-8.4652,-8.4845,-8.4914,-8.4974,-8.5205,-8.5181,-8.5239,-8.5352,-8.5459,-8.5485,-8.5508,-8.5593,-8.5622,-8.5258,-8.5258,-8.5259,0,-8.3923,-8.4104,-8.4122,-8.4255,-8.4324,-8.4301,-8.4445,-8.4509,-8.4638,-8.4686,-8.4639,-8.4883,-8.4944,-8.5145,-8.5202,-8.5251,-8.5291,-8.5228,-8.548,-8.5504,-8.5526,-8.5606,-8.5638,-8.5265,-8.5264,-8.5264,-8.5263,0,-8.4201,-8.4327,-8.4429,-8.4559,-8.4639,-8.4777,-8.4815,-8.4895,-8.4895,-8.4932,-8.5101,-8.5174,-8.5297,-8.5345,-8.5345,-8.5548,-8.5519,-8.5476,-8.539,-8.5564,-8.5639,-8.567,-8.5274,-8.5272,-8.527,-8.5268,0,0,-8.4447,-8.4587,-8.4624,-8.4684,-8.4794,-8.4892,-8.5029,-8.5151,-8.522,-8.531,-8.5426,-8.5592,-8.5554,-8.5622,-8.563,-8.5724,-8.5905,-8.5669,-8.5672,-8.5712,-8.6134,-8.6167,-8.6203,-8.589,-8.5895,-8.59,-8.6127,0,-8.466,-8.4904,-8.4925,-8.5144,-8.5261,-8.5242,-8.5361,-8.5442,-8.548,-8.5584,-8.5625,-8.5744,-8.5683,-8.5725,-8.5817,-8.5863,-8.599,-8.5847,-8.5998,-8.6003,-8.5976,-8.6242,-8.6276,-8.6487,-8.6157,-8.6162,-8.6165,0,-8.494,-8.5043,-8.5274,-8.5371,-8.5421,-8.5528,-8.5644,-8.5744,-8.5835,-8.5856,-8.5935,-8.5931,-8.6072,-8.5981,-8.6176,-8.6079,-8.6141,-8.6174,-8.6183,-8.6198,-8.6095,-8.6266,-8.6554,-8.6587,-8.6212,-8.6208,-8.6205,0,-8.5099,-8.5294,-8.5459,-8.551,-8.5626,-8.5703,-8.5754,-8.584,-8.5914,-8.6014,-8.6062,-8.6177,-8.624,-8.6328,-8.6356,-8.6287,-8.6551,-8.6461,-8.6573,-8.6572,-8.6629,-8.6626,-8.6934,-8.6668,-8.6668,-8.6667,-8.6666,0,-8.5335,-8.5477,-8.5532,-8.5633,-8.5793,-8.5816,-8.5973,-8.6021,-8.6098,-8.6208,-8.6197,-8.63,-8.6329,-8.6438,-8.646,-8.6619,-8.6647,-8.6668,-8.6672,-8.667,-8.6668,-8.6712,-8.6698,-8.6675,-8.6674,-8.6672,-8.667,0,-8.5539,-8.5581,-8.576,-8.5857,-8.5885,-8.5998,-8.6081,-8.6178,-8.6215,-8.6355,-8.6389,-8.6447,-8.6574,-8.6611,-8.6762,-8.6777,-8.6965,-8.6955,-8.6935,-8.6936,-8.7046,-8.7036,-8.7394,-8.7443,-8.7144,-8.7147,-8.7149,0,-8.5687,-8.5797,-8.5907,-8.5981,-8.6037,-8.6156,-8.6232,-8.6259,-8.6338,-8.6452,-8.6536,-8.6663,-8.6765,-8.697,-8.7025,-8.7142,-8.7135,-8.7253,-8.7153,-8.7148,-8.7139,-8.7133,-8.7145,-8.7272,-8.7275,-8.7278,-8.728,0,-8.5947,-8.5963,-8.6073,-8.6193,-8.6284,-8.6379,-8.6469,-8.653,-8.657,-8.666,-8.6792,-8.6872,-8.7029,-8.7155,-8.7274,-8.7326,-8.7311,-8.7311,-8.7343,-8.7343,-8.7327,-8.7339,-8.6989,-8.7303,-8.73,-8.7299,-8.7297,-8.7297,-8.6129,-8.6227,-8.632,-8.6444,-8.6516,-8.6602,-8.67,-8.675,-8.6861,-8.6993,-8.7002,-8.7145,-8.7235,-8.7394,-8.7453,-8.7565,-8.753,-8.7576,-8.7588,-8.76,-8.761,-8.7309,-8.7586,-8.7586,-8.7585,-8.7585,-8.7584,0,-8.6389,-8.6449,-8.6563,-8.6692,-8.679,-8.6769,-8.6869,-8.6952,-8.7079,-8.7166,-8.7268,-8.7421,-8.7543,-8.7609,-8.7732,-8.7809,-8.7805,-8.784,-8.7835,-8.7848,-8.7633,-8.7594,-8.7842,-8.7842,-8.7842,-8.7841,-8.7841,-8.7841,-8.6536,-8.6701,-8.6729,-8.6931,-8.6989,-8.7131,-8.7191,-8.727,-8.734,-8.7511,-8.7614,-8.7657,-8.7736,-8.7865,-8.7977,-8.7993,-8.8039,-8.8079,-8.8091,-8.7889,-8.7863,-8.7838,-8.7801,-8.8088,-8.8089,-8.8297,-8.8299,-8.83]}]]